Terminal Aerodrome Forecast
Issued by NWS

Home | Current Version | Previous Version | Text Only | Print | Product List | Glossary On
Versions: 1 2 3 4 5 6 7 8 9 10 11 12 13 14 15 16 17 18 19 20 21 22 23 24 25 26 27 28 29 30 31 32 33 34 35 36 37 38 39 40 41 42 43 44 45 46 47 48 49 50
000
FTUS41 KCTP 041128
TAFBFD
TAF
KBFD 041128Z 0412/0512 00000KT 1/4SM FG VV002
      TEMPO 0412/0413 3SM BR BKN003
     FM041300 00000KT 1SM BR SCT005
     FM041400 27007KT P6SM SCT025
     FM041600 28010G15KT P6SM BKN050
     FM042300 29008KT P6SM SCT250=

USA.gov is the U.S. government's official web portal to all federal, state and local government web resources and services.